GFSFLT2_prec_radar_051.txt.gz
Reflectivity
-20 -20 -20 -20 -20 -20 -20 -20 -20 -20 -20 -20 -9 -2 1 -14 -20 -9 5 8 11 13 16 15 12 13 19
-20 -20 -20 -20 -20 -20 -20 -20 -20 -20 -20 -20 -11 -20 -18 -3 -20 7 10 13 11 6 9 8 9 -1 13
-20 -20 -20 -20 -20 -20 -20 -20 -20 -20 -20 -20 -20 -20 -4 2 -3 -18 -20 -16 -17 -16 -20 -20 -16 3 10
-20 -20 -20 -20 -20 -20 -20 -20 -20 -20 -20 -20 -20 -20 -20 -20 -20 -20 -20 -20 -3 1 4 -5 -12 8 12
-20 -20 -20 -20 -20 -20 -20 -20 -20 -20 -20 -20 -20 -20 -20 -20 -20 -20 -20 -18 -0 9 7 9 7 11 11
-20 -20 -20 -20 -20 -20 -20 -20 -20 -20 -20 -20 -20 -20 -20 -20 -20 -20 -20 -20 1 2 11 6 9 11 11
-20 -20 -20 -20 -20 -20 -20 -17 -20 -20 -20 -20 -20 -20 -20 -20 -20 -20 -20 -20 -3 2 8 7 10 9 13
-20 -20 -20 -20 -14 -8 -19 -20 -20 -20 -20 -20 -20 -20 -20 -20 -20 -20 -20 -20 -20 -4 1 2 4 2 9
-20 -19 -16 -16 -20 -20 -20 -20 -20 -20 -20 -20 -20 -20 -20 -20 -20 -20 -20 -20 -20 -20 -20 -4 -2 2 8
-20 -20 -20 -20 -20 -20 -20 -20 -20 -20 -20 -20 -20 -20 -20 -20 -20 -20 -20 -20 -20 -20 -20 -20 -20 -20 -20
-20 -20 -20 -20 -20 -20 -20 -20 -20 -20 -20 8 -2 -20 -14 -20 -20 -20 -20 -20 -20 -20 -20 -20 -20 0 -20
-20 -20 -20 -20 -20 -20 -20 -20 -20 -20 -20 -19 12 -20 -10 -18 -20 -20 -20 -20 -20 -20 -20 -20 -20 -15 3
-20 -20 -20 -20 -20 -20 -20 -20 -20 -20 -20 -20 -19 -20 -15 -14 -20 -20 -20 -20 -20 -20 -20 -20 -20 -20 -20
-20 -20 -20 -20 -20 -20 -20 -20 -20 -20 -20 -20 -20 -20 -19 -20 -17 -20 -20 -20 -20 -20 -20 -20 -20 -20 -20
-20 -20 -20 -20 -20 -20 -20 -20 -20 -20 -20 -20 -20 -20 -20 -20 -20 -20 -20 -20 -20 -20 -20 -20 -20 -20 -20
-20 -20 -20 -20 -20 -20 -20 -20 -20 -20 -20 -20 -20 -20 -20 -6 5 -14 -19 -20 -20 -20 -20 -13 -20 -17 -20
-20 -20 -20 -20 -20 -20 -20 -20 -20 -20 -20 -20 -17 -1 2 -10 11 18 21 12 -2 -5 -20 -20 -20 -20 -20

GFSFLT2_prec_radar_054.txt.gz
Reflectivity
-20 -19 -19 -20 -20 -20 -20 -20 -20 -20 -20 -20 -13 -7 -2 -15 -20 -4 6 -4 -20 -4 10 13 17 15 12
-20 -20 -20 -20 -20 -20 -20 -20 -20 -20 -20 -20 -20 -20 -2 -3 -19 11 8 9 11 11 10 9 12 8 11
-12 -20 -20 -20 -20 -20 -20 -20 -20 -20 -20 -20 -20 -20 -20 -8 1 -20 -20 -17 -16 -12 8 -1 -17 -20 -20
-20 -20 -20 -20 -20 -20 -20 -20 -20 -20 -20 -20 -20 -20 -20 -20 -20 -20 -20 -20 -13 1 -0 1 -7 -12 -9
-20 -20 -20 -20 -20 -20 -20 -20 -20 -20 -20 -20 -20 -20 -20 -20 -20 -20 -20 -20 -3 3 -4 11 10 12 12
-20 -20 -20 -20 -20 -20 -20 -20 -20 -20 -20 -20 -20 -20 -20 -20 -20 -20 -20 -20 -14 2 10 11 10 11 13
-20 -20 -20 -20 -20 -20 -20 -20 -20 -20 -20 -20 -20 -20 -20 -20 -20 -20 -20 -20 -8 1 3 5 10 7 9
-20 -20 -20 -20 -20 -17 -20 -20 -20 -20 -20 -20 -20 -20 -20 -20 -20 -20 -20 -20 -20 -7 0 -3 7 6 6
-20 -20 -17 -20 -20 -20 -20 -20 -20 -20 -20 -20 -20 -20 -20 -20 -20 -20 -20 -20 -20 -20 -20 -15 -2 -0 7
-20 -20 -20 -20 -20 -20 -20 -20 -20 -20 -20 -20 -20 -20 -20 -20 -20 -20 -20 -20 -20 -20 -20 -20 -13 -20 -20
-20 -20 -20 -20 -20 -20 -20 -20 -20 -20 -20 -6 -8 -20 -18 -20 -20 -20 -20 -20 -20 -20 -20 -20 -20 -2 -12
-20 -20 -20 -20 -20 -20 -20 -20 -20 -20 -20 -20 4 -20 -15 -20 -20 -20 -20 -20 -20 -20 -20 -20 -20 -20 -11
-20 -20 -20 -20 -20 -20 -20 -20 -20 -20 -20 -20 -20 -20 -18 -20 -20 -20 -20 -20 -20 -20 -20 -20 -20 -20 -20
-20 -20 -20 -20 -20 -20 -20 -20 -20 -20 -20 -20 -20 -20 -16 -18 -12 -19 -20 -20 -20 -20 -20 -20 -20 -20 -20
-20 -20 -20 -20 -20 -20 -20 -20 -20 -20 -20 -20 -20 -20 -20 8 14 -17 -20 -20 -20 -20 -20 -20 -20 -19 -20
-20 -20 -20 -20 -20 -20 -20 -20 -20 -20 -20 -20 -20 -20 -8 12 10 3 -14 -20 -20 -20 -20 -18 -20 2 -11
-20 -20 -20 -20 -20 -20 -20 -20 -20 -20 -20 -20 -20 -3 -9 -20 9 18 22 7 -20 -20 -20 -20 -20 -20 -20

GFSFLT2_prec_radar_057.txt.gz
Reflectivity
24 17 7 6 -15 -20 -20 -20 -20 -20 -20 -20 -20 -20 -16 -20 -20 -20 -0 5 -1 11 16 14 16 17 20
19 29 20 15 12 5 -18 -20 -20 -20 -20 -20 -20 -20 -20 -18 -1 -20 -19 1 5 8 10 9 7 13 12
20 22 -6 2 -5 -18 -20 -20 -20 -20 -20 -20 -20 -20 -20 -20 -9 -15 -20 -20 -11 -1 2 -20 -20 -16 -18
10 -8 -14 -20 -20 -20 -20 -20 -20 -20 -20 -20 -20 -20 -20 -20 -20 -20 -20 -20 -20 -11 -3 -10 -3 -1 5
-16 -20 -20 -20 -20 -20 -20 -20 -20 -20 -20 -20 -20 -20 -20 -20 -20 -20 -20 -20 -20 -5 4 8 10 12 14
-20 -20 -20 -20 -20 -20 -7 -20 -20 -20 -20 -20 -20 -20 -20 -20 -20 -20 -20 -20 -20 0 4 6 10 12 11
-5 -20 -20 -20 -20 -20 -14 2 -7 -20 -20 -20 -20 -20 -20 -20 -20 -20 -20 -20 -20 -5 4 4 9 9 9
-20 -20 -20 -20 -15 -6 -11 -20 -20 -20 -20 -20 -20 -20 -20 -20 -20 -20 -20 -20 -20 -12 -1 0 2 6 5
-20 -20 -16 -20 -20 -20 -20 -20 -20 -20 -20 -20 -20 -20 -20 -20 -20 -20 -20 -20 -20 -20 -20 -20 -1 1 -10
-20 -20 -20 -20 -20 -20 -20 -20 -19 -20 -20 -20 -20 -19 -20 -20 -20 -20 -20 -20 -20 -20 -20 -20 -20 -1 0
-20 -20 -20 -20 -20 -20 -20 -9 -19 -15 -20 1 -18 -20 -7 -20 -20 -20 -20 -20 -20 -20 -20 -20 -20 -1 6
-20 -20 -20 -20 -20 -20 -20 -20 -20 -20 -20 -12 -2 -20 -20 -20 -20 -20 -20 -20 -20 -20 -20 -20 -20 -20 -12
-20 -20 -20 -20 -20 -20 -20 -20 -20 -20 -20 -20 -20 -20 -20 -20 -20 -20 -20 -20 -20 -20 -20 -20 -20 -20 -20
-20 -20 -20 -20 -20 -20 -20 -20 -20 -20 -20 -20 -20 -20 -20 -20 -20 -20 -20 -20 -20 -20 -20 -20 -20 -20 -20
-20 -20 -20 -20 -20 -20 -20 -20 -20 -20 -20 -20 -20 -20 -20 -20 -7 -20 -20 -20 -20 -20 -20 -20 -20 -20 -20
-20 -20 -20 -20 -20 -20 -20 -20 -20 -20 -20 -20 -20 -20 -20 -19 -9 -19 -20 -20 -20 -20 -20 -10 -20 -17 -17
-20 -20 -20 -20 -20 -20 -20 -20 -20 -20 -20 -20 -20 -4 -12 -20 -20 9 14 -9 -1 -0 -20 0 -20 -11 -20

GFSFLT2_prec_radar_060.txt.gz
Reflectivity
20 38 35 21 22 9 -6 3 3 -9 -16 -20 -20 -20 -20 -19 -20 -20 -20 -20 -10 6 16 12 12 11 14
7 28 13 11 -5 1 7 5 -6 -20 -20 -20 -20 -20 -20 -20 -16 -6 -19 -2 -20 2 2 -20 -9 -1 -0
4 -17 8 17 7 -17 -19 -20 -20 -20 -20 -20 -20 -20 -20 -20 -20 -20 -20 -20 -20 -20 -16 -11 -8 -20 -20
8 7 -13 -20 -20 -20 -20 -20 -20 -20 -20 -20 -20 -20 -20 -20 -20 -20 -20 -20 -20 -20 -12 -4 -0 4 -7
-2 -19 -20 -20 -20 -20 -20 -20 -20 -20 -20 -20 -20 -20 -20 -20 -20 -20 -20 -20 -20 -10 -1 2 7 8 12
-11 -20 -20 -20 -20 -20 -20 -20 -17 -20 -20 -20 -20 -20 -20 -20 -20 -20 -20 -20 -20 -7 -1 2 1 9 10
-20 -20 -20 -20 -20 -17 -6 -20 -11 -20 -20 -20 -20 -20 -20 -20 -20 -20 -20 -20 -20 -20 -2 3 3 -12 -10
-20 -20 -20 -20 -19 -12 -0 -13 -20 -20 -20 -20 -20 -20 -20 -20 -20 -20 -20 -20 -20 -20 -20 -5 -20 -5 2
-20 -20 -20 -20 -20 -20 -20 -6 -20 -20 -20 -20 -20 -20 -20 -20 -20 -20 -20 -20 -20 -20 -20 -20 -2 -3 4
-20 -20 -20 -20 -20 -20 -20 -8 -4 -12 -20 -20 -20 -8 -20 -20 -20 -20 -20 -20 -20 -20 -20 -20 -7 -20 0
-20 -20 -20 -20 -20 -20 -20 -20 -13 -10 -20 -1 -14 -17 -3 -4 -20 -20 -20 -20 -20 -20 -20 -20 -14 1 2
-20 -20 -20 -20 -20 -20 -20 -20 -20 -11 -20 3 -6 -10 1 -20 -20 -20 -20 -20 -20 -20 -1 -15 -8 -4 -2
-20 -20 -20 -20 -20 -20 -5 -2 -4 -20 -20 -17 -1 -20 -17 -20 -20 -20 -20 -20 -20 -6 1 4 4 2 -0
-20 -20 -20 -20 -20 -20 -11 -20 -20 -20 -20 -20 -16 1 -20 -20 5 -20 -18 2 -20 -18 2 3 -0 -11 -20
-20 -20 -20 -20 -20 -20 -20 -14 -2 -20 -20 -20 -6 -8 -11 -14 -19 -20 -20 -18 1 -5 -7 -20 -20 -10 -12
-20 -16 -10 -15 -20 -20 3 6 1 -20 -20 -19 -4 -17 -1 -5 -20 -20 -20 -1 -5 3 6 5 -3 -20 -9
-7 -20 -19 -20 -4 -20 -20 4 2 -0 -0 -2 1 7 8 5 -20 -16 7 5 3 1 1 3 1 -20 -20

GFSFLT2_prec_radar_063.txt.gz
Reflectivity
27 9 19 14 9 13 -1 -14 -20 -20 2 -9 -20 -20 -20 -20 -15 -20 -14 -19 -7 -20 -20 -16 7 6 18
10 8 -17 -15 -20 -20 -20 -16 -18 -17 -18 -20 -20 -20 -20 -20 -20 -20 -20 -20 -9 -20 -0 2 6 10 1
9 -20 -20 -20 -20 -20 -13 -18 -20 -20 -20 -20 -20 -20 -20 -20 -20 -20 -20 -20 -6 -11 -7 -17 -20 -17 -3
-20 -20 -20 -20 -20 -20 -20 -20 -20 -20 -20 -20 -20 -20 -20 -20 -20 -20 -20 -20 -20 -20 -20 -20 -13 -0 -7
-20 -14 -20 -20 -20 -20 -20 -20 -20 -20 -20 -20 -20 -20 -20 -20 -20 -20 -20 -20 -20 -20 -5 -1 -13 5 12
-20 -20 -20 -20 -20 -20 -20 -20 -20 -20 -20 -20 -20 -20 -20 -20 -20 -20 -20 -20 -20 -10 -2 0 0 -16 10
-19 -20 -20 -20 -20 -20 -20 -20 -20 -20 -20 -20 -20 -20 -20 -20 -20 -20 -20 -20 -20 -20 -20 -20 -3 1 3
-20 -20 -20 -20 -20 -20 -7 -11 -20 -20 -20 -20 -20 -20 -20 -20 -20 -20 -20 -20 -20 -20 -20 -15 -1 0 7
-20 -20 -20 -20 -18 -20 -20 -20 -20 -20 -20 -20 -20 -20 -20 -20 -20 -20 -20 -20 -20 -20 -20 -20 -9 -2 -1
-20 -20 -20 -20 -20 -20 -20 -5 -20 -20 -20 -20 -20 -19 -20 -20 -20 -20 -20 -20 -20 -20 -20 -20 -6 -20 -20
-20 -20 -20 -20 -20 -20 -20 -20 -20 -20 -20 -19 -20 -20 -8 -20 -20 -20 -20 -20 -20 -20 -20 -20 -13 -12 -18
-20 -20 -20 -20 -15 -20 -20 -20 -20 -20 -20 -20 -19 -20 -20 -20 -20 -20 -20 -20 -20 -20 -20 -20 -8 -5 5
-20 -15 -20 -20 -20 -20 -20 -20 -20 -20 -20 -20 -20 -20 -20 -20 -20 -20 -20 -20 -20 -20 -20 -8 -20 -20 -20
-20 -20 -20 -20 -20 -20 -20 -20 -20 -20 -20 -10 -20 -18 -19 -20 -19 -20 -20 -19 -20 -20 -20 -20 -20 -20 -20
-20 -20 -20 -20 -20 -20 -20 -20 -20 -20 -20 -20 -20 -20 -18 -20 -19 -20 -20 -20 -20 -20 -18 -20 -14 -20 -20
-20 -20 -20 -20 -20 -20 -20 -10 -2 -9 -20 -20 -20 -20 -20 -20 -20 -20 -20 -7 -20 -9 3 3 -20 -1 -20
-20 -20 -20 -20 -10 -10 -20 -20 -18 -3 -20 -20 -19 2 -17 -20 -20 -13 -20 -20 -20 -20 -20 -20 -20 -20 -20

GFSFLT2_prec_radar_066.txt.gz
Reflectivity
37 25 5 4 6 -5 -3 -20 -17 -20 -20 -20 -20 -20 -20 -20 -20 -13 -0 -3 1 0 -0 -18 8 5 17
23 2 6 -2 17 -20 -20 -20 -20 -20 -20 -20 -20 -20 -20 -20 -20 -19 -19 -7 -6 -20 -3 3 5 -17 0
-12 -19 -7 -20 -18 -20 5 -20 -20 -20 -20 -20 -20 -20 -20 -20 -20 -20 -20 -20 -2 -3 -5 -19 -18 -16 -16
-20 -20 -20 -20 -20 -20 -20 -20 -20 -20 -20 -20 -20 -20 -20 -20 -20 -20 -20 -20 -20 -20 -20 -12 -20 -14 -20
-20 -20 -20 -20 -20 -20 -20 -20 -20 -20 -20 -20 -20 -20 -20 -20 -20 -20 -20 -20 -20 -20 -16 -15 -16 2 9
-20 -20 -20 -20 -20 -20 -20 -20 -20 -20 -20 -20 -20 -20 -20 -20 -20 -20 -20 -20 -20 -7 -20 -20 -20 -20 -1
-8 -14 -20 -20 -20 -20 -20 -20 -20 -20 -20 -20 -20 -20 -20 -20 -20 -20 -20 -20 -20 -20 -10 -1 1 5 12
-20 -20 -20 -20 -20 -20 -20 -20 -20 -20 -20 -20 -20 -20 -20 -20 -20 -20 -20 -20 -20 -20 -20 -9 -10 10 9
-20 -20 -20 -20 -20 -20 -20 -20 -20 -20 -20 -20 -20 -20 -20 -20 -20 -20 -20 -20 -20 -20 -20 -8 4 12 9
-20 -20 -20 -20 -20 -20 -20 -20 -20 -20 -20 -20 -20 -20 -20 -20 -20 -20 -20 -20 -20 -20 -20 -6 4 -10 -20
-20 -20 -20 -20 -20 -20 -20 -20 -20 -20 -20 -20 -20 -20 -20 -20 -20 -20 -20 -20 -20 -20 -20 -20 -8 -10 -11
-20 -20 -20 -20 -20 -20 -20 -20 -20 -20 -20 -19 -6 -13 -19 -20 -20 -20 -20 -20 -20 -20 -20 -20 -20 -20 -13
-20 -20 -20 -20 -20 -20 -20 -20 -20 -20 -19 -20 -20 -20 -16 -18 -20 -20 -20 -20 -20 -20 -20 -20 -20 -20 -20
-20 -20 -20 -20 -20 -20 -20 -13 -20 -20 -20 -20 -20 -20 -18 -20 -20 -20 -20 -19 -20 -20 -20 -20 -20 -20 -20
-20 -20 -20 -20 -20 -20 -20 -20 -20 -20 -20 -20 -20 -20 -20 -20 -20 -20 -20 -20 -20 -20 -15 -17 -20 -20 -20
-20 -20 -20 -20 -20 -20 -20 -20 -20 -20 -20 -20 -20 -20 -20 -20 -20 -20 -20 -20 -20 -20 -20 -20 -20 -20 -20
-20 -20 -20 -20 -8 -20 -20 -20 -20 -20 -20 -20 -20 -17 -17 -20 -20 -20 -20 -20 -20 -20 -20 -20 -20 -20 -20

GFSFLT2_prec_radar_069.txt.gz
Reflectivity
28 37 24 30 28 31 21 2 1 19 -18 -20 -20 -20 -20 -20 -20 -20 -15 -3 -5 0 -20 -20 -12 -1 7
41 31 23 19 3 17 13 -11 5 -20 -20 -20 -20 -20 -20 -20 -20 -20 -19 -3 0 0 -1 10 -12 -20 9
14 6 -20 -5 3 -20 -19 -2 -20 -20 -20 -20 -20 -20 -20 -20 -20 -8 -19 -20 -20 -9 -20 -20 -13 -20 -20
-9 -20 -20 -20 -20 -20 -20 -20 -20 -20 -20 -20 -20 -20 -20 -20 -20 -20 -20 -20 -20 -20 -20 -20 -20 -20 -10
-20 -19 -20 -20 -20 -20 -20 -20 -20 -20 -20 -20 -20 -20 -20 -20 -20 -20 -20 -20 -20 -20 -20 -17 -5 -0 7
-10 -20 -20 -20 -20 -20 -20 -20 -20 -20 -20 -20 -20 -20 -20 -20 -20 -20 -20 -20 -20 -20 -20 -6 -20 -20 -18
-20 -20 -20 -20 -20 -20 -20 -20 -20 -20 -20 -20 -20 -20 -20 -20 -20 -20 -20 -20 -20 -20 -2 -11 4 7 12
-20 -20 -20 -20 -20 -20 -20 -20 -20 -20 -20 -20 -20 -20 -20 -20 -20 -20 -20 -20 -20 -20 -20 -20 -7 0 5
-20 -20 -20 -20 -20 -20 -20 -20 -20 -20 -20 -20 -20 -20 -20 -20 -20 -20 -20 -20 -20 -20 -20 -20 -18 -10 -14
-20 -20 -20 -20 -20 -20 -20 -20 -20 -20 -20 -20 -20 -19 -20 -20 -20 -20 -20 -20 -20 -20 -20 -20 -6 -19 -20
-20 -20 -20 -20 -20 -20 -20 -20 -20 -20 -20 -20 -20 -20 -20 -20 -20 -20 -20 -20 -20 -20 -20 -20 -20 -6 -14
-20 -20 -20 -20 -20 -20 -20 -20 -20 -20 -20 -20 -18 -20 -19 -20 -20 -20 -20 -20 -20 -20 -20 -20 -20 -20 -20
-20 -20 -20 -20 -20 -20 -20 -20 -20 -20 -20 -20 -20 -20 -20 -19 -20 -20 -20 -20 -20 -20 -20 -20 -20 -20 -20
-20 -20 -20 -20 -20 -20 -20 -20 -20 -20 -20 -20 -20 -20 -20 -19 -20 -20 -20 -19 -20 -20 -20 -20 -20 -20 -20
-20 -20 -20 -20 -20 -20 -20 -20 -14 -20 -20 -20 -20 -20 -20 -20 -20 -20 -20 -20 -20 -20 -20 -20 -20 -20 -20
-20 -20 -20 -20 -20 -20 -20 -20 -20 -20 -20 -20 -20 -20 -20 -20 -20 -20 -20 -20 -20 -20 -20 -20 -20 -20 -20
-20 -20 -20 -20 -19 -20 -20 -20 -20 -20 -20 -20 -20 -20 -19 -20 -20 -20 -20 -20 -20 -20 -20 -20 -20 -20 -20

GFSFLT2_prec_radar_075.txt.gz
Reflectivity
-20 -17 -20 -20 -17 -10 24 9 13 30 18 25 27 25 26 12 11 -13 -20 -20 -20 -20 -20 -20 -20 -20 -15
-20 -20 -15 -0 29 27 4 5 12 15 18 26 28 10 10 -11 -12 -20 -16 -20 -20 -20 -20 -20 -20 -7 6
-20 -8 -3 26 26 6 15 15 14 20 3 2 1 -15 -20 -20 -20 -20 -8 -20 -20 -20 -20 -20 -20 -7 -20
-19 -2 0 3 -13 -19 -10 -16 -20 -20 -20 -20 -20 -20 -20 -20 -20 -20 -20 -20 -20 -20 -20 -20 -20 -11 -3
-20 -20 -20 -20 -20 -20 -20 -20 -20 -20 -20 -20 -20 -20 -20 -20 -20 -20 -20 -20 -20 -20 -17 -16 -19 -0 -4
-20 -20 -20 -20 -20 -20 -20 -20 -20 -20 -20 -20 -20 -20 -20 -20 -20 -20 -20 -20 -20 -20 -20 -14 -0 8 -2
-20 -20 -20 -20 -20 -20 -20 -20 -20 -20 -20 -20 -20 -20 -20 -20 -20 -20 -20 -20 -20 -20 -20 -20 -20 -20 -20
-20 -20 -20 -20 -20 -20 -20 -20 -20 -20 -20 -20 -20 -20 -20 -20 -20 -20 -20 -20 -20 -20 -20 -20 -20 -20 -18
-20 -20 -20 -20 -20 -20 -20 -20 -20 -20 -20 -20 -20 -20 -20 -20 -20 -20 -20 -20 -20 -20 -20 -20 -20 -20 -20
-20 -20 -20 -20 -20 -20 -20 -20 -20 -20 -20 -20 -20 -20 -20 -20 -20 -20 -20 -20 -20 -20 -20 -20 -13 -20 -20
-20 -20 -20 -20 -20 -20 -20 -20 -20 -20 -20 -20 -20 -20 -20 -20 -20 -20 -20 -20 -20 -20 -20 -20 -20 -20 -15
-20 -20 -20 -20 -20 -20 -20 -20 -20 -20 -20 -20 -20 -20 -20 -20 -20 -20 -20 -20 -20 -20 -20 -20 -20 -20 -20
-20 -20 -20 -20 -20 -20 -20 -20 -20 -20 -20 -20 -20 -20 -18 -19 -20 -20 -20 -20 -20 -20 -20 -20 -20 -20 -20
-20 -20 -20 -20 -20 -20 -20 -20 -20 -20 -20 -20 -20 -20 -19 -20 -20 -20 -20 -20 -20 -20 -20 -20 -20 -20 -20
-20 -20 -20 -20 -20 -20 -20 -20 -20 -20 -20 -20 -20 -20 -20 -18 -18 -20 -20 -20 -20 -20 -20 -20 -20 -20 -20
-20 -20 -20 -20 -20 -20 -20 -20 -20 -20 -20 -20 -20 -20 -20 -20 -20 -20 -20 -20 -20 -20 -20 -20 -20 -20 -20
-20 -20 -20 -20 -19 -20 -20 -20 -20 -20 -20 -20 -20 -20 -20 -20 -20 -20 -20 -20 -20 -20 -20 -20 -20 -20 -20

GFSFLT2_prec_radar_078.txt.gz
Reflectivity
-20 -20 -20 -20 -20 -19 8 -7 15 24 20 14 11 17 25 26 14 15 2 5 11 4 -12 -7 -5 -14 -8
-20 -20 -20 -20 -20 -20 -16 -19 -8 21 13 -2 10 9 13 -10 -3 -19 -17 -18 -17 -20 -20 -20 -20 -4 11
-20 -20 -20 -20 -20 -20 -19 -20 -20 16 -8 -5 1 -1 -14 -19 -20 -20 -20 -18 -20 -20 -20 -11 -13 3 -8
-20 -20 -20 -20 -20 -20 -20 -20 -20 -20 -20 -16 -10 -9 -20 -20 -20 -20 -20 -18 -20 -20 -20 -20 -20 -18 -5
-20 -20 -20 -20 -20 -20 -20 -20 -20 -20 -20 -20 -20 -20 -20 -20 -20 -20 -20 -20 -20 -20 -20 -8 5 -14 -20
-20 -20 -20 -20 -20 -20 -20 -20 -20 -20 -20 -20 -20 -20 -20 -20 -20 -20 -20 -20 -20 -20 -20 -20 -20 10 3
-20 -20 -20 -20 -20 -20 -20 -20 -20 -20 -20 -20 -20 -20 -20 -20 -20 -20 -20 -20 -20 -20 -20 -20 -19 -20 -20
-20 -20 -20 -20 -20 -20 -20 -20 -20 -20 -20 -20 -20 -20 -20 -20 -20 -20 -20 -20 -20 -20 -20 -20 -20 -20 -20
-20 -20 -20 -20 -20 -20 -20 -20 -20 -20 -20 -20 -20 -20 -20 -20 -20 5 -1 -20 -20 -20 -20 -20 -20 -20 -20
-20 -20 -20 -20 -20 -20 -20 -20 -20 -20 -20 -20 -20 -20 -20 -20 -20 -20 -20 -20 -20 -20 -20 -20 -20 -20 -20
-20 -20 -20 -20 -20 -20 -20 -20 -20 -20 -20 -20 -20 -20 -12 -20 -20 -20 -20 -20 -20 -20 -20 -20 -20 -20 -20
-20 -20 -20 -20 -20 -20 -20 -20 -20 -20 -20 -20 -19 -20 -20 -20 -20 -20 -20 -20 -20 -20 -20 -20 -20 -20 -20
-20 -20 -20 -20 -20 -20 -20 -20 -20 -20 -20 -20 -20 -20 -20 -20 -20 -20 -19 -20 -20 -20 -20 -20 -20 -20 -20
-20 -20 -20 -20 -20 -20 -20 -20 -20 -20 -20 -20 -20 -20 -20 -20 -20 -20 -20 -20 -20 -20 -20 -20 -20 -20 -20
-20 -20 -20 -20 -20 -20 -20 -20 -20 -20 -20 -20 -20 -20 -20 -20 -20 -20 -20 -20 -20 -20 -20 -20 -20 -20 -20
-20 -20 -20 -20 -20 -20 -20 -20 -20 -20 -20 -20 -20 -20 -20 -20 -20 -20 -20 -20 -20 -20 -20 -20 -20 -20 -20
-20 -20 -20 -20 -5 -20 -20 -20 -20 -20 -20 -20 -20 -20 -20 -20 -20 -20 -20 -20 -20 -20 -20 -20 -20 -20 -20

GFSFLT2_prec_radar_081.txt.gz
Reflectivity
-20 -20 -20 -20 -20 -20 -7 -20 -13 -13 -0 6 10 4 -14 7 1 12 19 15 15 17 18 10 -1 9 19
-20 -20 -20 -20 -20 -20 -20 -20 -20 -7 -20 -20 -20 -20 -20 -20 -20 -20 -20 -19 -19 -20 -19 -20 -20 -20 -20
-20 -20 -20 -10 -9 -19 -20 -20 -20 -5 -20 -10 -20 -20 -20 -2 -20 -20 -19 -20 -20 -20 -20 -20 -20 -20 -20
-20 -20 -20 -20 -20 -20 -20 -20 -20 -20 -20 -20 -20 -20 -20 -20 -20 -20 -20 -20 -20 -20 -20 -20 -20 -20 -20
-20 -20 -20 -20 -20 -20 -20 -20 -20 -20 -20 -20 -20 -20 -20 -20 -20 -20 -20 -20 -20 -20 -20 -20 -20 -20 -14
-20 -20 -20 -20 -20 -20 -20 -20 -20 -20 -20 -20 -20 -20 -20 -20 -20 -20 -20 -20 -20 -20 -20 -20 -20 -20 -12
-20 -20 -20 -20 -20 -20 -20 -20 -20 -20 -20 -20 -20 -20 -20 -20 -20 -20 -20 -20 -20 -20 -20 -20 -20 -20 -13
-20 -20 -20 -20 -20 -20 -20 -20 -20 -20 -20 -20 -20 -20 -20 -20 -20 -20 -20 -10 -10 -19 -20 -20 -20 -20 -20
-20 -20 -20 -20 -20 -20 -20 -20 -20 -20 -20 -20 -20 -20 -20 -20 -20 -2 7 -6 -20 -20 -20 -20 -20 -20 -20
-20 -20 -20 -20 -20 -20 -20 -20 -20 -20 -20 -20 -20 -20 -20 -20 -20 -20 -20 -20 -20 -20 -20 -20 -20 -20 -20
-20 -20 -20 -20 -20 -20 -20 -20 -20 -20 -14 2 -0 -20 -20 -20 -20 -20 -20 -20 -20 -20 -20 -20 -20 -20 -20
-20 -20 -20 -20 -20 -20 -20 -20 -20 -20 -20 -20 5 3 0 -9 -20 -20 -20 -20 -20 -20 -20 -20 -20 -20 -20
-20 -20 -20 -20 -20 -20 -20 -20 -3 -3 -1 -20 -11 5 6 1 -11 -11 -6 -20 -20 -20 -20 -20 -20 -20 -20
-20 -20 -20 -20 -18 -4 -20 -4 0 -20 -20 -20 -20 -20 2 -1 2 -5 -20 -10 -20 -20 -20 -20 -20 -20 -20
-20 -20 -20 -20 -20 -6 -20 -11 1 -20 -20 -20 -20 -20 -20 -20 -13 -20 -20 -20 -20 -20 -5 -20 -20 -20 -20
-20 -20 -20 -20 -20 -20 -20 -5 -0 -15 -20 -20 -20 -20 -20 -20 -20 -20 -20 -20 -20 -20 -20 -18 -20 -20 -20
-20 -20 -20 -20 -5 -2 -2 -19 -20 -20 -20 -20 -20 -20 -20 -20 -20 -20 -20 -20 -20 -20 -20 -19 -20 -20 -20

GFSFLT2_prec_radar_084.txt.gz
Reflectivity
-20 -20 -20 -20 -20 -20 -20 -20 -20 -15 7 -20 -20 -20 -20 -20 -19 -2 -20 -20 -20 -17 8 -9 7 9 3
-20 -20 -20 -20 -20 -20 -20 -20 -20 -0 -20 -20 -11 -20 -20 -20 -20 -13 -20 -20 -20 -20 -20 -20 -20 -20 -19
-20 -20 -20 -20 -20 -20 -20 -20 -20 -20 -11 -20 -20 -2 -20 -20 -20 -20 -20 -20 -20 -20 -20 -20 -20 -20 -20
-20 -20 -20 -20 -20 -20 -20 -20 -20 -20 -20 -20 -20 -20 -20 -20 -20 -20 -20 -20 -20 -20 -20 -20 -20 -20 -20
-20 -20 -20 -20 -20 -20 -20 -20 -20 -20 -20 -20 -20 -20 -20 -20 -20 -20 -20 -20 -20 -20 -20 -20 -20 -6 3
-20 -20 -20 -20 -20 -20 -20 -20 -20 -20 -20 -20 -20 -20 -20 -20 -20 -20 -20 -20 -20 -20 -20 -15 9 10 11
-20 -20 -20 -20 -20 -20 -20 -20 -20 -20 -20 -20 -20 -20 -20 -20 -20 -20 -20 -20 -20 -20 -20 -19 -5 5 -19
-20 -20 -20 -20 -20 -20 -20 -20 -20 -20 -20 -20 -20 -20 -20 -20 -20 -20 -20 -20 -20 -20 -20 -20 -20 -20 -20
-20 -20 -20 -20 -20 -20 -20 -20 -20 -20 -20 -20 -20 -20 -20 -20 -20 -20 -20 -20 -20 -20 -20 -20 -20 -20 -20
-20 -20 -20 -20 -20 -20 -20 -20 -20 -20 -20 -20 -20 -20 -20 -20 -20 -20 -20 -20 -20 -20 -20 -20 -20 -20 -20
-20 -20 -20 -20 -20 -20 -20 -20 -15 -15 -20 -11 -20 -17 -11 -20 -20 -20 -20 -20 -20 -20 -20 -20 -20 -20 -20
-20 -20 -20 -20 -20 -20 -20 -20 -20 -9 -14 -4 3 -4 -20 -7 -17 -20 -20 -20 -15 -3 -20 -20 -20 -20 -20
-20 -20 -20 -20 -20 -20 -20 -20 -20 -14 -2 -2 -2 2 4 -2 -11 -20 -20 -20 -13 1 -18 -20 -20 -20 -20
-20 -20 -20 -20 -20 -14 -9 -20 -14 -20 3 -20 -20 -2 -5 -0 3 0 -11 -7 -19 -20 -7 -17 -20 -20 -20
-20 -20 -20 -20 -15 -20 -20 -20 -14 -15 -20 -20 -11 -3 -19 -10 -1 -20 -20 -20 -16 -20 -20 -20 -20 -20 -20
-20 -20 -20 -20 -6 -18 -20 -20 -19 -18 -20 -20 -20 -6 -20 -20 -20 -20 -20 -20 -11 -6 -20 -1 -20 -20 -20
-20 -20 -20 -20 -20 -14 -20 -20 -20 -20 -20 -20 -20 -20 -4 -20 -20 -20 -20 -20 -6 -16 -19 -2 -4 -20 -20

GFSFLT2_prec_radar_087.txt.gz
Reflectivity
-20 -20 -20 -20 -20 -20 -11 -20 -17 10 6 12 7 -17 -19 -20 3 2 -20 -20 -20 -20 -3 9 10 10 5
-20 -20 -20 -20 -20 -20 -20 -20 -20 -19 12 10 -20 -20 -20 2 -20 -12 -20 -20 -20 -20 -20 -13 -19 -20 -20
-20 -20 -20 -20 -20 -20 -20 -20 -20 -20 -20 -20 -20 -20 -20 -19 -15 -20 -20 -20 -20 -20 -20 -20 -20 -20 -20
-20 -20 -20 -20 -20 -20 -20 -20 -20 -20 -20 -20 -20 -20 -20 -20 -20 -20 -20 -20 -20 -20 -20 -20 -20 -20 -20
-20 -20 -20 -20 -20 -20 -20 -20 -20 -20 -20 -20 -20 -20 -20 -20 -20 -20 -20 -20 -20 -20 -20 -20 -20 -20 -20
-20 -20 -20 -20 -20 -20 -20 -20 -20 -20 -20 -20 -20 -20 -20 -20 -20 -20 -20 -20 -20 -20 -20 -20 1 11 13
-20 -20 -20 -20 -20 -20 -20 -20 -20 -20 -20 -20 -20 -20 -20 -20 -20 -20 -20 -20 -20 -20 -20 -20 -20 -10 8
-20 -20 -20 -20 -20 -20 -20 -20 -20 -20 -20 -20 -20 -20 -20 -20 -20 -20 -20 -20 -20 -20 -20 -20 -7 -8 -20
-20 -20 -20 -20 -20 -20 -20 -20 -20 -20 -20 -20 -20 -20 -20 -20 -20 -20 -20 -20 -20 -20 -20 -20 -20 -20 -20
-20 -20 -20 -20 -20 -20 -20 -20 -20 -20 -20 -20 -20 -20 -20 -20 -20 -20 -20 -20 -20 -20 -20 -20 -20 -20 -20
-20 -20 -20 -20 -20 -20 -20 -20 -20 -20 -20 -20 -20 -20 -20 -20 -20 -20 -20 -20 -20 -20 -20 -20 -20 -20 -20
-20 -20 -20 -20 -20 -20 -20 -20 -20 -20 -20 -20 -17 -2 -8 -20 -20 -20 -20 -20 -20 -20 -20 -10 -17 -20 -20
-20 -20 -20 -20 -20 -20 -12 -9 -20 -20 -7 -20 -20 -3 -3 -4 -13 -20 -19 -20 -20 -20 -20 -20 -20 -20 -20
-20 -20 -20 -20 -20 -20 -20 -20 -20 -20 -19 -12 -20 -20 -20 -3 -20 -20 -20 -10 -20 -20 -20 -20 -20 -20 -20
-20 -20 -20 -20 -20 -20 -20 -20 -16 -20 -20 -20 -20 -20 -20 -20 -20 -20 -20 -20 -20 -20 -20 -20 -20 -20 -20
-20 -20 -20 -20 -20 -20 -19 -20 -7 -20 -20 -20 -18 -17 -17 -20 -20 -20 -20 -20 -20 -19 -20 -20 -20 -20 -20
-20 -20 -20 -20 -20 -20 -20 -20 -20 -20 -7 -4 -20 -20 -20 -20 -20 -20 -20 -20 -16 -20 -20 -16 -20 -20 -20

GFSFLT2_prec_radar_090.txt.gz
Reflectivity
-20 -20 -20 -20 -20 -20 -16 -20 -9 -10 12 10 -3 -19 -20 -20 -20 -20 -14 1 -10 -20 -20 -13 -0 2 8
-20 -20 -20 -20 -20 -20 -20 -20 -20 -20 -4 -20 -20 -20 -20 -20 -20 -20 -11 -20 -20 -20 -20 -20 -20 3 11
-20 -20 -20 -20 -20 -20 -20 -20 -20 -20 -20 -20 -20 -20 -20 5 -11 -20 -20 -20 -20 -20 -20 -20 -20 -20 -9
-20 -20 -20 -20 -20 -20 -20 -20 -20 -20 -20 -20 -20 -20 -20 -20 -20 -20 -20 -20 -20 -20 -20 -20 -20 -20 -20
-20 -20 -20 -20 -20 -20 -20 -20 -20 -20 -20 -20 -20 -20 -20 -20 -20 -20 -20 -20 -20 -20 -20 -20 -20 -20 -20
-20 -20 -20 -20 -20 -20 -20 -20 -20 -20 -20 -20 -20 -20 -20 -20 -20 -20 -20 -20 -20 -20 -20 -20 -20 -20 -20
-20 -20 -20 -20 -20 -20 -20 -20 -20 -20 -20 -20 -20 -20 -20 -20 -20 -20 -20 -20 -20 -20 -20 -20 -20 -20 1
-20 -20 -20 -20 -20 -20 -20 -20 -20 -20 -20 -20 -20 -20 -20 -20 -20 -20 -20 -20 -20 -20 -20 -20 -20 -20 -8
-20 -20 -20 -20 -20 -20 -20 -20 -20 -20 -20 -20 -20 -20 -20 -20 -20 -20 -20 -20 -20 -20 -20 -20 -20 -16 -20
-20 -20 -20 -20 -20 -20 -20 -20 -20 -20 -20 -20 -20 -20 -20 -20 -20 -20 -20 -20 -20 -20 -20 -20 -20 -20 -20
-20 -20 -20 -20 -20 -20 -20 -20 -20 -20 -20 -20 -20 -20 -20 -20 -20 -20 -20 -20 -20 -20 -20 -20 -20 -12 -20
-20 -20 -20 -20 -20 -20 -20 -20 -20 -20 -20 -20 -20 -20 -20 -20 -20 -20 -20 -20 -20 -20 -20 -12 -2 5 5
-20 -20 -20 -20 -20 -20 -20 -20 -20 -20 -20 -20 -20 -20 -20 -20 -20 -20 -20 -20 -20 -20 -20 -20 -20 -20 -20
-20 -20 -20 -20 -20 -20 -20 -20 -20 -20 -20 -19 -20 -20 -20 -20 -16 -20 -20 -9 -20 -20 -20 -20 -20 -20 -20
-20 -20 -20 -20 -20 -20 -20 -20 -20 -20 -20 -20 -20 -20 -20 -20 -20 -20 -20 -20 -20 -20 -20 -20 -20 -20 -20
-20 -20 -20 -20 -20 -20 -20 -20 -20 -20 -20 -20 -20 -14 -20 -20 -20 -20 -20 -20 -20 -20 -20 -20 -20 -20 -20
-20 -20 -20 -20 -20 -20 -20 -20 -20 -20 -20 -20 -20 -20 -20 -20 -20 -20 -20 -20 -20 -20 -20 -20 -20 -20 -20

GFSFLT2_prec_radar_093.txt.gz
Reflectivity
-20 -15 -20 -20 -20 -20 -20 -20 -12 -5 11 11 10 -9 -7 -12 -3 5 7 3 7 7 -18 -14 -20 -15 8
-20 -20 -20 -20 -20 -20 -20 -20 -20 -10 9 7 6 -20 -20 -20 -20 -20 -20 -20 -20 -15 -6 -7 -20 -14 -19
-20 -20 -20 -20 -20 -20 -20 -20 -20 -20 -20 -20 -20 -20 -5 9 -2 -20 -20 -20 -20 -20 -20 -20 -20 -20 -20
-20 -20 -20 -20 -20 -20 -20 -20 -20 -20 -20 -20 -20 -20 -20 -20 -20 -20 -20 -20 -20 -20 -20 -20 -20 -20 -20
-20 -20 -20 -20 -20 -20 -20 -20 -20 -20 -20 -20 -20 -20 -20 -20 -20 -20 -20 -20 -20 -20 -20 -20 -20 -20 -20
-20 -20 -20 -20 -20 -20 -20 -20 -20 -20 -20 -20 -20 -20 -20 -20 -20 -20 -20 -20 -20 -20 -20 -20 -20 -20 -20
-20 -20 -20 -20 -20 -20 -20 -20 -20 -20 -20 -20 -20 -20 -20 -20 -20 -20 -20 -20 -20 -20 -20 -20 -20 -20 -20
-20 -20 -20 -20 -20 -20 -20 -20 -20 -20 -20 -20 -20 -20 -20 -20 -20 -20 -20 -20 -20 -20 -20 -20 -20 -20 -20
-20 -20 -20 -20 -20 -20 -20 -20 -20 -20 -20 -20 -20 -20 -20 -20 -20 -20 -20 -20 -20 -20 -20 -20 -20 -20 -3
-20 -20 -20 -20 -20 -20 -20 -20 -20 -20 -20 -20 -20 -20 -20 -20 -20 -20 -20 -20 -20 -20 -20 -20 -20 -20 -20
-20 -20 -20 -20 -20 -20 -20 -20 -20 -20 -20 -20 -20 -20 -20 -20 -20 -20 -20 -20 -20 -20 -20 -20 -20 -20 -20
-20 -20 -20 -20 -20 -20 -20 -20 -20 -20 -20 -20 -20 -20 -20 -20 -20 -20 -20 -20 -20 -20 -20 -20 -12 -0 8
-20 -20 -20 -20 -20 -20 -20 -20 -20 -20 -20 -20 -20 -20 -20 -20 -20 -20 -20 -20 -20 -20 -20 -18 -20 -20 -20
-20 -20 -20 -20 -20 -20 -20 -20 -20 -20 -20 -20 -20 -20 -20 -20 -20 -20 -20 -20 -20 -20 -20 -20 -20 -20 -20
-20 -20 -20 -20 -20 -20 -20 -20 -20 -20 -20 -20 -20 -20 -20 -20 -20 -20 -20 -20 -20 -20 -20 -20 -20 -20 -20
-20 -20 -20 -20 -20 -20 -20 -20 -20 -20 -20 -20 -20 -20 -20 -20 -20 -20 -20 -20 -20 -20 -20 -20 -20 -20 -20
-20 -20 -20 -20 -20 -20 -20 -20 -20 -20 -20 -20 -20 -20 -20 -20 -20 -20 -20 -20 -20 -20 -20 -20 -20 -20 -20

GFSFLT2_prec_radar_096.txt.gz
Reflectivity
-20 -3 -15 -20 -14 -20 -20 -20 -16 -9 -19 -20 -20 -6 -3 12 11 12 -3 12 9 -1 0 -19 -10 -1 -16
2 13 -20 -4 -20 -20 -20 -20 -20 4 -20 -20 -20 -3 -20 -20 -19 -19 2 10 8 12 -16 9 -12 -20 -20
-20 -20 -20 -4 -20 -20 -20 -20 -20 -20 -20 -20 -20 -8 3 5 -20 -20 -20 -20 -20 -20 -20 -20 -20 -20 -20
-20 -20 -10 -20 -20 -20 -20 -20 -20 -20 -20 -20 -20 -20 -20 -20 -20 -20 -20 -20 -20 -20 -20 -20 -20 -20 -20
-20 -20 -20 -20 -20 -20 -20 -20 -20 -20 -20 -20 -20 -20 -20 -20 -20 -20 -20 -20 -20 -20 -20 -20 -20 -20 -20
-20 -20 -20 -20 -20 -20 -20 -20 -20 -20 -20 -20 -20 -20 -20 -20 -20 -20 -20 -20 -20 -20 -20 -20 -20 -20 -20
-20 -20 -20 -20 -20 -20 -20 -20 -20 -20 -20 -20 -20 -20 -20 -20 -20 -20 -20 -20 -20 -20 -20 -20 -20 -20 -20
-20 -20 -20 -20 -20 -20 -20 -20 -20 -20 -20 -20 -20 -20 -20 -20 -20 -20 -20 -20 -20 -20 -20 -20 -20 -20 -20
-20 -20 -20 -20 -20 -20 -20 -20 -20 -20 -20 -20 -20 -20 -20 -20 -20 -20 -20 -18 -20 -20 -20 -20 -20 -20 -20
-9 -20 -20 -20 -20 -20 -20 -20 -20 -20 -20 -20 -20 -20 -20 -20 -20 -20 -20 -20 -20 -20 -20 -20 -20 -20 -20
-13 -20 -20 -20 -20 -20 -20 -20 -20 -20 -20 -20 -20 -20 -20 -20 -20 -20 -20 -20 -20 -20 -20 -20 -20 -20 -20
-20 -20 -20 -20 -20 -20 -20 -20 -20 -20 -20 -20 -20 -20 -20 -20 -20 -20 -20 -20 -20 -20 -20 -20 -20 -7 9
-20 -20 -20 -20 -20 -20 -20 -20 -20 -20 -20 -20 -20 -20 -20 -20 -20 -20 -20 -20 -20 -20 -20 -20 -20 -20 -20
-20 -20 -20 -20 -20 -20 -20 -20 -20 -20 -20 -20 -20 -20 -20 -20 -20 -20 -20 -20 -20 -20 -20 -20 -20 -20 -20
-20 -20 -20 -20 -20 -20 -20 -20 -20 -20 -20 -20 -20 -20 -20 -20 -20 -20 -20 -20 -20 -20 -20 -20 -20 -20 -20
-20 -20 -20 -20 -20 -20 -20 -20 -20 -20 -20 -20 -20 -20 -20 -20 -20 -20 -20 -20 -20 -20 -20 -20 -20 -20 -20
-20 -20 -20 -20 -20 -20 -20 -20 -20 -20 -20 -20 -20 -20 -20 -20 -20 -20 -20 -20 -20 -20 -20 -20 -20 -20 -20

GFSFLT2_prec_radar_099.txt.gz
Reflectivity
-19 -14 10 -20 -20 -19 -17 -20 -14 9 11 -9 -16 -12 6 11 -11 3 -7 9 18 16 9 17 9 -0 -20
1 10 -20 -20 3 -20 -20 -20 -20 10 -2 8 -6 -20 -20 -7 -5 -4 -10 -5 -9 -20 -2 -20 -5 -20 8
-7 -16 2 -8 -20 -20 -20 -20 -20 -20 -20 -20 -20 -14 -11 -20 -20 -13 -20 -20 -18 -18 -7 -5 -16 -20 -20
-19 -19 -20 -20 -20 -20 -20 -20 -20 -20 -20 -20 -20 -20 -11 -20 -20 -20 -20 -20 -20 -20 -20 -20 -20 -20 -20
-20 -20 -20 -20 -20 -20 -20 -20 -20 -20 -20 -20 -20 -20 -20 -20 -20 -20 -20 -20 -20 -20 -20 -20 -20 -20 -20
1 -20 -20 -20 -20 -20 -20 -20 -20 -20 -20 -20 -20 -20 -20 -20 -20 -20 -20 -20 -20 -20 -20 -20 -20 -20 -20
-20 -20 -20 -20 -20 -20 -20 -20 -20 -20 -20 -20 -20 -20 -20 -20 -20 -20 -20 -20 -20 -20 -20 -20 -20 -20 -20
-20 -20 -20 -20 -20 -20 -20 -20 -20 -20 -20 -20 -20 -20 -20 -20 -20 -20 -20 -20 -20 -20 -20 -20 -20 -20 -20
-20 -20 -20 -20 -20 -20 -20 -20 -20 -20 -20 -20 -20 -20 -20 -20 -20 -4 -12 4 -20 -20 -20 -20 -20 -20 -20
-11 -20 -20 -20 -20 -20 -20 -20 -20 -20 -20 -20 -20 -20 -20 -20 -20 -20 -20 -20 -20 -20 -20 -20 -20 -20 -20
5 1 -18 -20 -20 -20 -20 -20 -20 -20 -20 -20 -20 -20 -20 -20 -20 -20 -20 -20 -20 -20 -20 -20 -20 -20 -20
-18 -15 -20 -20 -20 -20 -20 -20 -20 -20 -20 -20 -20 -20 -20 -20 -20 -20 -20 -20 -20 -20 -20 -20 -20 -20 -15
-20 -20 -20 -20 -20 -20 -20 -20 -20 -20 -20 -20 -20 -20 -20 -20 -20 -20 -20 -20 -20 -20 -20 -20 -20 -20 -20
-20 -18 -8 -14 -20 -20 -20 -20 -20 -20 -20 -20 -20 -20 -20 -20 -20 -20 -20 -20 -20 -20 -20 -20 -20 -20 -20
-4 -16 -20 -20 -20 -20 -20 -20 -20 -20 -20 -20 -20 -20 -20 -20 -20 -20 -20 -20 -20 -20 -20 -20 -20 -20 -20
-20 -20 -20 -20 -20 -20 -20 -20 -20 -20 -20 -20 -20 -20 -20 -20 -20 -20 -20 -20 -20 -20 -20 -20 -20 -20 -20
-20 -20 -20 -20 -20 -20 -20 -20 -20 -20 -20 -20 -20 -20 -20 -20 -20 -20 -20 -20 -20 -20 -20 -20 -20 -20 -20

GFSFLT2_prec_radar_102.txt.gz
Reflectivity
-10 -20 6 -2 4 -11 -6 -20 -20 -5 -10 -4 -20 -20 9 17 11 18 10 27 26 27 23 15 17 4 7
-18 10 -0 0 11 -19 -20 -20 -20 -17 8 5 -1 -20 -20 9 9 6 12 11 13 13 -8 9 -6 8 5
-20 -19 12 -5 3 -2 -4 -20 -20 8 8 6 -8 6 -14 -18 -19 -0 1 -20 -20 -20 -10 -7 -20 1 -20
2 10 9 6 8 -10 -20 -20 -20 -20 -20 -20 -20 -16 -15 -20 -20 -20 -16 -20 -20 -20 -20 -20 -20 -20 -20
11 12 2 3 -20 -20 -20 -20 -20 -20 -20 -20 -20 -20 -20 -20 -20 -20 -20 -20 -20 -20 -20 -20 -20 -20 -20
11 16 3 12 7 -3 -20 -20 -20 -20 -20 -20 -20 -20 -20 -20 -20 -20 -20 -20 -20 -20 -20 -20 -20 -20 -20
-20 -4 -20 -20 -20 -20 -19 -2 -20 -20 -20 -20 -20 -20 -20 -20 -20 -20 -20 -20 -20 -20 -20 -20 -20 -20 -20
-20 -20 -20 -20 1 17 10 -19 -20 -20 -20 -20 -20 -20 -20 -20 -20 -20 -20 -20 -20 -20 -20 -20 -20 -20 -20
-20 -20 -20 -20 -20 -20 -20 -20 -20 -9 1 -18 -20 -20 -20 -20 -20 -20 -20 -20 -20 -20 -20 -20 -20 -20 -20
-20 -20 -20 -12 -20 -5 3 -5 8 -17 -17 -20 -20 -20 -20 -20 -20 -20 -20 -20 -20 -20 -20 -20 -20 -20 -20
-20 -20 -20 -20 -20 -17 1 4 -16 -20 -20 -20 -20 -20 -20 -20 -20 -20 -20 -20 -20 -20 -20 -20 -20 -20 -20
-20 -20 -20 -20 -9 -6 -19 -20 -20 -20 -20 -20 -18 -20 -20 -20 -20 -20 -20 -20 -20 -20 -20 -20 -20 -20 -20
-20 -20 -20 -7 -14 -20 -20 -20 -17 -17 -20 -20 -20 -20 -20 -20 -20 -20 -20 -20 -20 -20 -20 -20 -20 -20 -20
-20 -20 -20 -20 -20 -20 -20 -15 -20 -20 -20 -20 -20 -20 -20 -20 -20 -20 -20 -20 -20 -20 -20 -20 -20 -20 -20
-20 -20 -20 -20 -20 -20 -20 -20 -20 -20 -20 -20 -20 -20 -20 -20 -20 -20 -20 -20 -20 -20 -20 -20 -20 -20 -20
-20 -20 -20 -20 -20 -18 -20 -20 -20 -20 -20 -20 -20 -20 -20 -20 -20 -20 -20 -20 -20 -20 -20 -20 -20 -20 -20
-20 -20 -20 -20 -20 -20 -20 -20 -20 -20 -20 -20 -20 -20 -20 -20 -20 -20 -20 -20 -20 -20 -20 -20 -20 -20 -20

GFSFLT2_prec_radar_105.txt.gz
Reflectivity
-20 -20 -20 -20 -20 -19 -1 -15 4 -4 -20 -20 -20 -20 -20 12 14 17 12 23 26 20 5 1 -7 -20 -19
-20 -12 -20 -20 -20 17 5 -17 -19 12 -10 -20 -20 3 -20 2 2 18 15 15 6 11 16 27 16 13 16
-20 -20 -20 -20 -19 -1 -5 -2 -4 15 7 -20 -14 -19 -20 -20 -14 2 -15 7 21 24 19 16 13 5 7
-5 -20 -20 -20 -13 3 8 -19 2 -19 3 -20 -20 -20 -20 -20 -20 -8 -20 -20 -20 -20 -10 -2 -13 -20 -20
-20 -12 8 7 10 12 8 0 0 -20 -20 -20 -20 -20 -20 -20 -20 -20 -10 -20 -20 -20 -20 -20 -20 -20 -20
5 -7 6 7 12 12 3 -10 -12 -20 -20 -20 -20 -7 -14 -8 -20 -20 -20 -20 -20 -20 -20 -20 -20 -20 -20
-4 3 -14 12 -3 6 -0 6 -20 -20 2 12 -17 -20 -20 -20 -20 -13 -20 -20 -20 -20 -20 -20 -20 -20 -20
-20 -17 -20 -20 -20 -20 -20 -20 -9 13 15 -19 -20 -20 -20 -20 -17 -20 -20 -20 -20 -20 -20 -20 -20 -20 -20
10 9 -5 -20 -20 -20 -20 -19 -2 -18 -3 -20 -20 -20 -19 -7 -20 -20 -20 -20 -20 -20 -20 -20 -20 -20 -20
-20 -20 -20 -20 -20 -20 -20 -20 -20 -3 -1 2 -2 2 -4 -20 -20 -20 -20 -17 -20 -20 -20 -20 -20 -20 -20
-20 -20 -20 -20 -20 -20 -20 -20 -20 -20 -13 -16 -20 -18 -10 -18 -20 -20 -20 -20 -20 -20 -20 -20 -20 -20 -20
-20 -20 -20 -20 -20 -20 -20 -20 -20 -20 -20 -20 -20 -5 -9 -8 -20 -20 -20 -20 -20 -20 -20 -20 -20 -20 -20
-20 -20 -20 -20 -20 -20 -20 -20 -20 -20 -20 -20 -20 -9 2 2 -16 -20 -20 -20 -20 -20 -20 -20 -20 -20 -20
-20 -20 -20 -20 -20 -20 -20 -20 -20 -20 -20 -20 -20 -20 -20 -12 -9 -20 -20 -20 -20 -20 -20 -20 -20 -20 -20
-20 -20 -20 -20 -20 -20 -20 -20 -20 -20 -20 -20 -20 -20 -20 -20 -20 -20 -20 -20 -20 -20 -20 -20 -20 -20 -20
-20 -20 -20 -20 -20 -20 -20 -20 -20 -20 -20 -20 -20 -20 -20 -20 -20 -20 -20 -20 -20 -20 -20 -20 -20 -20 -20
-20 -20 -20 -20 -20 -20 -20 -20 -20 -20 -20 -20 -20 -20 -20 -20 -20 -20 -20 -20 -20 -20 -20 -20 -20 -20 -20

GFSFLT2_prec_radar_108.txt.gz
Reflectivity
-20 -20 -20 -20 -20 -20 -17 -10 -6 12 -1 -20 -20 -20 -20 -20 5 17 15 -6 27 8 17 21 13 9 18
-20 -20 -20 -20 -20 -20 -13 -12 2 17 -1 -20 -20 -20 -20 -16 8 16 21 18 26 25 22 23 5 19 7
-20 -20 -2 -20 -20 -20 -20 -0 6 15 9 3 -20 -20 -20 -20 -5 15 21 29 25 26 16 21 21 19 15
-20 -20 -20 -20 -20 -20 -20 -6 8 3 14 5 -20 -20 -20 -20 -20 -8 7 -20 -12 -6 15 18 28 22 6
-20 -20 -20 -20 -20 -20 -17 -5 -8 -10 6 -20 -20 -20 -20 -20 -20 -20 -20 -20 -9 -5 10 9 2 -8 -20
-20 -20 -20 -16 -13 -6 -2 -15 -11 -20 -20 -20 -20 -20 -20 -20 -20 -20 -12 -1 -7 -20 -20 -20 -20 -20 -20
-20 -20 -10 3 -7 -1 12 8 -11 1 -20 -20 -20 -20 -5 16 12 -0 -19 -20 -20 -20 -20 -20 -20 -20 -20
-20 -20 -20 -20 -7 6 -17 5 -20 -17 -20 -20 -19 -5 9 -1 -20 -20 -20 -20 -18 -20 -20 -20 -20 -20 -20
-19 9 11 10 3 -20 -20 -20 -20 -20 -20 -19 -2 1 -3 -20 -20 -20 -19 -7 1 -20 -20 -20 -20 -20 -20
-20 -20 -3 -6 -16 -20 -20 -20 -20 -20 -20 -20 -17 -4 -2 -3 -20 -20 -20 -9 -20 -20 -20 -20 -20 -20 -20
-20 -20 -20 -20 -20 -20 -20 -20 -12 -20 -20 -20 -20 -20 -20 -18 -8 -20 -20 -20 -20 -20 -20 -20 -20 -20 -20
-20 -20 -20 -20 -20 -20 -20 -20 -20 -3 -20 3 -20 -20 -20 -20 -20 -20 -20 -20 -20 -20 -20 -20 -20 -20 -20
-20 -20 -20 -20 -20 -20 -20 -20 -20 -20 -20 -20 -6 -20 -20 -20 -20 -20 -20 -20 -20 -20 -20 -20 -20 -20 -20
-20 -20 -20 -20 -20 -20 -20 -20 -20 -20 -20 -20 -20 -20 -20 -20 -20 -20 -10 -14 -20 -20 -20 -20 -20 -20 -20
-20 -20 -20 -20 -20 -20 -20 -20 -20 -20 -20 -20 -20 -20 -20 -20 -20 -20 -20 -20 -20 -20 -20 -20 -20 -20 -20
-20 -20 -20 -20 -20 -20 -20 -20 -20 -20 -20 -20 -20 -20 -20 -20 -20 -20 -20 -20 -20 -20 -20 -20 -20 -20 -20
-20 -20 -20 -20 -20 -20 -20 -20 -20 -20 -20 -20 -20 -20 -20 -20 -20 -20 -20 -20 -20 -20 -20 -20 -20 -20 -20

GFSFLT2_prec_radar_111.txt.gz
Reflectivity
-20 -20 -20 -20 -20 -19 -10 -20 -20 -2 6 8 -10 -20 -20 -20 -20 12 15 4 -18 14 10 11 26 38 40
-20 -20 -20 -20 -20 -20 -20 -20 -14 11 6 3 -20 -20 -20 -20 -20 12 16 19 -4 25 22 26 -3 18 23
-15 -20 -20 -20 -20 -20 -8 -20 -18 1 10 1 -20 -20 -20 -20 -13 14 16 25 26 18 20 19 23 8 21
-7 -20 -20 -20 -20 -20 -20 -20 -17 -4 11 7 -11 -20 -20 -20 -20 4 12 22 25 23 24 20 29 24 17
-8 -20 -20 -20 -20 -20 -20 -20 -20 3 -3 -13 -20 -20 -20 -20 -20 -20 -1 16 9 28 20 41 16 8 17
-20 -20 -20 -20 -19 11 -4 -10 -17 -20 -20 -20 -20 -20 -20 -20 -20 -20 -20 -20 -20 -20 -20 5 12 13 9
-20 -20 -20 -20 -19 -9 10 3 -5 -9 -20 -20 -20 -20 -20 -20 -20 8 6 -12 -14 -20 -3 2 2 -13 -20
-20 -20 -20 -5 -10 -14 3 12 9 -1 -10 -20 -20 -20 -20 -20 -20 -20 -7 14 5 -12 -19 -12 -17 -20 -20
3 8 10 11 8 -12 -18 -20 -20 -20 -20 -20 -20 -20 -20 -20 -20 11 4 -20 -19 -11 -20 -20 -20 -20 -20
-20 -1 2 2 6 -11 -20 -20 -15 -20 -20 -20 -20 -20 -20 -20 -20 -6 -9 -20 -20 -20 -20 -20 -20 -20 -20
-20 -20 -20 -20 -20 -20 -20 -20 -20 -20 -20 -20 -20 -20 -20 -20 -20 -20 -20 -20 -20 -20 -20 -20 -20 -20 -20
-20 -20 -20 -20 -20 -20 -20 -20 -20 -20 -20 -20 -20 -20 -20 -20 -20 -20 -20 -20 -20 -20 -20 -20 -20 -20 -20
-20 -20 -20 -20 -20 -20 -20 -20 -20 -20 -20 -20 -20 -20 -20 -20 -20 -20 -20 -20 -20 -20 -20 -20 -20 -20 -20
-20 -20 -20 -20 -20 -20 -20 -20 -20 -20 -20 -20 -20 -20 -20 -20 -20 -20 -20 -20 -20 -20 -20 -20 -20 -20 -20
-20 -20 -20 -20 -20 -20 -20 -20 -20 -20 -20 -20 -20 -20 -20 -20 -20 -20 -20 -20 -20 -20 -20 -20 -20 -20 -20
-20 -20 -20 -20 -20 -20 -20 -20 -20 -20 -20 -20 -20 -20 -20 -20 -20 -20 -20 -20 -20 -20 -20 -20 -20 -20 -20
-20 -20 -20 -20 -20 -20 -20 -20 -20 -20 -20 -20 -20 -20 -20 -20 -20 -20 -20 -20 -20 -20 -20 -20 -20 -20 -20

GFSFLT2_prec_radar_114.txt.gz
Reflectivity
-20 -20 -20 -20 -20 -20 -20 -20 -17 11 6 -20 -20 -19 -20 -20 -20 -20 -15 11 -5 -20 -1 -19 -20 -17 26
-20 -20 -15 -20 -20 -20 -20 -20 -6 8 8 -16 -20 -17 -20 -20 -20 -7 4 18 12 -20 -20 20 9 27 39
-20 -20 -20 -20 -20 -20 -20 -20 -20 -9 -8 3 -15 -10 -20 -20 -20 -5 10 22 20 5 24 21 15 22 25
-20 -20 -20 -20 -20 -20 -20 -20 -20 -20 -11 -13 8 3 -20 -20 -20 -18 3 15 26 20 18 18 25 16 28
-20 -20 -20 -20 -20 -20 -20 -20 -20 -20 -20 -9 -9 -19 -20 -20 -20 -20 12 18 10 23 20 26 25 28 29
-20 -20 -20 -20 -20 -20 -20 -20 -20 -20 -20 -20 -20 -20 -20 -20 -20 -20 2 -5 11 16 20 26 22 31 20
-20 -20 -20 -20 -20 -20 -13 -20 -20 -13 -20 -20 -20 -20 -20 -20 -20 -20 -20 -20 -13 3 9 34 13 8 5
-20 -20 -20 -20 -14 -20 -14 -9 -7 6 7 -19 -20 -20 -20 -20 -20 -20 -20 -20 -20 -20 -20 -20 -11 6 -13
-20 -20 -20 -20 -20 -20 -20 -12 11 6 -18 -20 -20 -20 -20 -20 -20 -20 -20 -20 -20 -20 -20 -20 -20 -20 -20
-20 -20 -20 -20 -20 -20 -20 -20 -12 -20 -20 -20 -20 -20 -20 -20 -20 -20 -20 -20 -20 -20 -20 -20 -20 -20 -17
-20 -20 -20 -20 -20 -20 -20 -20 -20 -20 -20 -20 -20 -20 -20 -20 -20 -20 -20 -20 -20 -20 -20 -20 -20 -20 -20
-20 -20 -20 -20 -20 -20 -20 -20 -20 -20 -20 -20 -20 -20 -20 -20 -20 -20 -20 -20 -20 -20 -20 -20 -20 -20 -20
-20 -20 -20 -20 -20 -20 -20 -20 -20 -20 -20 -20 -20 -20 -20 -20 -20 -20 -20 -20 -20 -20 -20 -20 -20 -20 -20
-20 -20 -20 -20 -20 -20 -20 -20 -20 -20 -20 -20 -20 -20 -20 -20 -20 -20 -20 -20 -20 -20 -20 -20 -20 -20 -20
-20 -20 -20 -20 -20 -20 -20 -20 -20 -20 -20 -20 -20 -20 -20 -20 -20 -20 -20 -20 -20 -20 -20 -20 -20 -20 -20
-20 -20 -20 -20 -20 -20 -20 -20 -20 -20 -20 -20 -20 -20 -20 -20 -20 -20 -20 -20 -20 -20 -20 -20 -20 -20 -20
-20 -20 -20 -20 -20 -20 -20 -20 -20 -20 -20 -20 -19 -20 -20 -20 -20 -20 -14 -20 -20 -20 -20 -20 -20 -20 -20

GFSFLT2_prec_radar_120.txt.gz
Reflectivity
-17 -20 -20 -20 -20 -20 -20 -20 -20 -20 -6 -20 -20 -20 -20 -20 -20 -20 -20 -12 -0 7 8 -7 -3 -20 -20
-20 -20 -20 -20 -20 -20 -20 -20 -20 -20 -20 -20 -20 -20 -20 -20 -20 -20 -20 10 -9 -6 -15 -20 -20 10 9
-20 -20 -20 -20 -20 -20 -20 -20 -20 -20 -20 -20 -16 -6 -19 -20 -20 -20 -20 -20 13 3 19 -20 -20 -20 7
-20 -20 -20 -20 -20 -20 -20 -20 -20 -20 -20 -16 -14 -6 -20 -20 -20 -20 -20 -9 15 18 25 14 -0 -9 -10
-20 -20 -20 -20 -20 -20 -20 -20 -20 -20 -20 -20 -20 -20 -17 -8 -20 -20 -20 -20 9 23 27 22 7 5 10
-20 -20 -20 -20 -20 -20 -20 -20 -20 -20 -20 -20 -20 -20 -20 -20 -3 -20 -20 -20 -13 21 13 10 28 24 26
-20 -20 -20 -20 -20 -20 -20 -20 -20 -20 -20 -20 -20 -20 -20 -17 -20 -20 -20 -20 -15 23 17 3 23 27 30
-20 -20 -20 -20 -20 -20 -20 -20 -20 -20 -20 -20 -20 -20 -20 -20 -20 -20 -20 -20 -20 -20 5 22 25 24 20
-20 -20 -20 -20 -20 -20 -20 -20 -20 -20 -20 -20 -20 -20 -20 -20 -20 -20 -20 -20 -20 -20 -20 -20 18 34 30
-20 -20 -20 -20 -20 -20 -20 -20 -20 -20 -20 -20 -20 -20 -20 -20 -20 -20 -20 -20 -20 -20 -20 -20 -20 -20 7
-20 -20 -20 -20 -20 -20 -20 -20 -20 -20 -20 -19 -20 -20 -20 -20 -20 -20 -20 -20 -20 -20 -20 -20 -20 -20 -20
-20 -20 -20 -20 -20 -20 -20 -20 -20 -20 -20 -20 -20 -20 -20 -20 -20 -20 -20 -20 -20 -20 -20 -20 -20 -20 -20
-20 -20 -20 -20 -20 -20 -20 -20 -20 -20 -20 -20 -20 -20 -20 -20 -20 -20 -20 -20 -20 -20 -20 -20 -20 -20 -20
-20 -20 -20 -20 -20 -20 -20 -20 -20 -20 -20 -18 -20 -20 -20 -20 -20 -20 -20 -20 -20 -20 -20 -20 -20 -20 -20
-20 -20 -20 -20 -20 -20 -20 -20 -20 -20 -20 -20 -20 -20 -20 -20 -20 -20 -20 -20 -20 -20 -20 -20 -20 -20 -20
-20 -20 -20 -20 -20 -20 -20 -20 -20 -20 -20 -20 -20 -20 -20 -20 -20 -20 -20 -20 -20 -20 -20 -20 -20 -20 -20
-20 -20 -20 -20 -20 -20 -20 -20 -20 -20 -20 -20 -20 -20 -20 -20 -20 -20 -20 -20 -20 -20 -20 -20 -20 -20 -20

GFSFLT2_prec_radar_123.txt.gz
Reflectivity
-14 -20 -20 -20 -20 -20 -20 -20 -20 -20 -4 11 7 -18 -20 -20 -20 -20 -20 -20 -14 2 13 11 -3 -16 -20
-20 -20 -20 -20 -20 -20 -20 -20 -20 -20 -19 10 8 -12 -20 -20 -20 -20 -20 -20 2 -1 9 -19 -20 -20 -19
8 5 -8 -20 -20 -20 -20 -20 -20 -20 -20 1 -18 -2 -20 -20 -20 -20 -20 -20 10 10 16 -14 -20 -20 -13
-20 -20 -20 -20 -20 -20 -20 -20 -20 -20 -20 -20 -20 -20 -20 -20 -20 -20 -20 -20 -1 14 16 -7 -4 12 -4
-20 -20 -20 -20 -20 -20 -20 -20 -20 -20 -20 -20 -20 -20 -20 -18 -20 -20 -20 -20 0 21 15 21 12 9 10
-20 -20 -20 -20 -20 -20 -20 -20 -20 -20 -20 -20 -20 -20 -20 -20 -20 -20 -20 -20 -16 22 15 21 11 20 27
-20 -13 -20 -20 -20 -20 -20 -20 -20 -20 -20 -20 -20 -20 -20 -20 -20 -20 -20 -20 -20 7 2 6 23 10 4
-20 -20 -20 -20 -20 -20 -20 -20 -20 -20 -20 -20 -20 -20 -20 -20 -20 -20 -20 -20 -20 -15 21 16 25 31 13
-20 -20 -20 -20 -20 -20 -20 -20 -20 -20 -20 -20 -20 -20 -20 -20 -20 -20 -20 -20 -20 -20 -20 -11 27 24 19
-20 -20 -20 -20 -20 -20 -20 -20 -20 -20 -20 -20 -20 -20 -20 -20 -20 -20 -20 -20 -20 -20 -20 -20 -20 -16 6
-20 -20 -20 -20 -20 -20 -20 -20 -17 -16 -19 -20 -20 -20 -20 -20 -20 -20 -20 -20 -20 -20 -20 -20 -20 -20 -6
-20 -20 -20 -20 -20 -20 -20 -20 -20 -20 -20 -20 -20 -20 -20 -20 -20 -20 -20 -20 -20 -20 -20 -20 -20 -20 -20
-20 -20 -20 -20 -20 -20 -20 -20 -20 -20 -20 -20 -20 -20 -20 -20 -20 -20 -20 -20 -20 -20 -20 -20 -20 -20 -20
-20 -20 -20 -20 -20 -20 -20 -20 -20 -20 -20 -17 -20 -20 -20 -20 -20 -20 -20 -20 -20 -20 -20 -20 -20 -20 -20
-20 -20 -20 -20 -20 -20 -20 -20 -20 -20 -20 -20 -20 -20 -20 -20 -20 -20 -20 -20 -20 -20 -20 -20 -20 -20 -20
-20 -20 -20 -20 -20 -20 -20 -20 -20 -20 -20 -20 -20 -20 -20 -20 -20 -20 -20 -20 -20 -20 -20 -20 -20 -20 -20
-20 -20 -20 -20 -20 -20 -20 -20 -20 -20 -20 -20 -20 -20 -20 -20 -20 -20 -20 -20 -20 -20 -20 -20 -20 -20 -20

GFSFLT2_prec_radar_126.txt.gz
Reflectivity
12 26 32 -12 -6 -20 -20 -20 -20 -20 -20 -20 11 8 -17 -20 -20 -20 -20 -20 -20 -20 2 9 6 6 -7
26 28 -6 -20 -20 -20 -20 -1 -3 -20 -20 -3 -7 1 3 -20 -20 -20 -20 -20 -20 -20 4 11 -5 -20 10
23 -20 -14 13 8 15 -4 -20 -20 -20 -20 -20 -20 -20 10 -20 -20 -20 -20 -20 -20 -20 -1 12 -20 -20 -20
-2 -11 -3 1 -2 -4 -6 -20 -20 -20 -20 -20 -20 -18 -20 -20 -20 -20 -20 -20 -11 -20 2 15 12 -20 -20
8 -14 -19 -18 -10 -20 -20 -20 -20 -20 -20 -20 -20 -20 -20 -20 -20 -20 -20 -20 -20 -9 14 2 12 -8 -1
-20 -0 -20 -20 -20 -20 -20 -20 -20 -3 -20 -20 -20 -20 -20 -20 -20 -20 -20 -20 -11 6 5 23 -5 9 -2
-15 -20 -20 -20 -15 -6 -16 -15 -20 -20 -20 -20 -20 -20 -20 -20 -20 -20 -20 -20 -17 9 18 21 12 -3 -20
19 -6 -20 -20 -20 -20 -20 -20 -20 -20 -20 -20 -20 -20 -20 -20 -20 -20 -20 -20 -20 1 7 19 17 17 2
25 -13 -20 -20 -12 -20 -20 -20 -20 -20 -20 -20 -20 -20 -20 -20 -20 -20 -20 -20 -20 -19 10 30 22 26 12
0 -18 -18 -20 -20 -19 -20 -20 -20 -20 -20 -20 -20 -20 -20 -20 -20 -20 -20 -20 -20 -20 -20 -3 20 16 22
-5 -13 -7 5 2 -2 -7 -20 -20 -20 -20 -20 -20 -20 -20 -20 -20 -20 -20 -20 -20 -20 -20 -20 3 -1 -12
7 3 0 0 -5 -20 -20 -20 -20 -20 -20 -20 -20 -20 -20 -20 -20 -20 -20 -20 -20 -20 -20 -20 -20 -16 9
-2 -7 -20 -20 -20 -20 -20 -20 -20 -20 -20 -20 -20 -20 -20 -20 -20 -20 -20 -20 -20 -20 -20 -20 -20 -20 -20
-20 -8 -20 -20 -20 -20 -20 -20 -20 -20 -20 -17 -20 -20 -20 -20 -20 -20 -20 -20 -20 -20 -20 -20 -20 -20 -20
17 -20 -16 11 -20 -20 -20 -20 -20 -20 -20 -20 -20 -20 -20 -20 -20 -20 -20 -20 -20 -20 -20 -20 -20 -20 -20
-1 -20 -18 -20 -20 -20 -20 -20 -20 -20 -20 -20 -20 -20 -20 -20 -20 -20 -20 -20 -20 -20 -20 -20 -20 -20 -20
3 16 -16 5 12 -20 -20 -20 -20 -20 -20 -20 -20 -20 -20 -20 -20 -20 -20 -20 -20 -20 -20 -20 -20 -20 -20

GFSFLT2_prec_radar_129.txt.gz
Reflectivity
-2 6 21 4 21 4 -14 -20 -20 -20 -20 -20 -20 -20 -17 -20 -20 -20 -20 -20 -20 -20 7 11 14 12 8
7 30 8 9 28 -10 -20 -20 -20 -20 -20 -20 -20 -18 -20 -20 -20 -20 -20 -20 -20 -20 6 11 -1 -20 -20
26 29 24 28 18 -9 -14 10 0 -1 -4 -20 -20 4 -20 -20 -20 -20 -20 -20 -20 1 11 5 -20 -20 -20
17 35 30 32 0 -9 -1 6 1 -16 -20 -20 -20 -20 -20 -20 -20 -20 -20 -20 -20 5 5 -18 -20 -20 -20
27 31 32 27 8 -3 -8 -20 -18 -20 -20 -20 -20 -20 -20 -20 -20 -20 -20 -20 -20 -20 0 -4 -20 -20 -20
32 37 31 29 -20 14 7 -1 4 -15 -20 -20 -20 -20 -20 -20 -20 -20 -20 -20 -20 -10 12 -2 -20 2 -20
34 28 34 25 -2 16 8 -5 -20 -20 -20 -20 -20 -20 -20 -20 -20 -20 -20 -20 -18 0 12 -1 -17 -20 -19
30 22 24 25 29 14 -5 2 -17 -20 -20 -20 -20 -20 -20 -20 -20 -20 -20 -20 -19 9 9 1 5 -2 8
33 36 32 33 26 22 10 4 -5 -19 -20 -7 -18 -20 -20 -20 -20 -20 -20 -20 -20 -9 7 21 15 8 5
31 26 22 16 16 3 -19 -19 -9 -20 -17 -20 -20 -20 -20 -20 -20 -20 -20 -20 -20 -20 4 20 29 3 16
31 20 19 14 15 10 -2 2 -1 -7 -2 -13 -20 -20 -20 -20 -20 -20 -20 -20 -20 -20 -20 8 17 19 11
34 28 11 -4 -1 7 8 7 1 -7 -20 -20 -20 -20 -20 -20 -20 -20 -20 -20 -20 -20 -20 -20 -13 3 7
25 31 17 8 9 -2 -19 -20 -20 -20 -20 -20 -20 -20 -20 -20 -20 -20 -20 -20 -20 -20 -20 -20 -20 -20 -20
20 30 13 2 -20 -20 -20 -20 -20 -20 -20 -20 -20 -20 -20 -20 -20 -20 -20 -20 -20 -20 -20 -20 -20 -20 -20
35 33 32 13 -12 -10 -20 -16 -20 -20 -20 -18 -20 -20 -20 -20 -20 -20 -20 -20 -20 -20 -20 -20 -20 -20 -20
27 32 14 18 15 0 8 15 -20 -20 -20 -20 -20 -20 -20 -20 -20 -20 -20 -20 -20 -20 -20 -20 -20 -20 -20
27 17 17 19 5 9 10 9 9 -3 -20 -20 -20 -20 -20 -20 -20 -20 -20 -20 -20 -20 -20 -20 -20 -20 -20

GFSFLT2_prec_radar_132.txt.gz
Reflectivity
2 16 8 -20 -20 -14 21 26 7 13 -20 -20 -20 -20 -20 -20 -20 -20 -20 -20 -20 -20 -20 7 11 7 12
5 10 9 -9 -11 15 34 26 7 6 -20 -20 -20 -20 -20 -20 -15 -20 -20 -20 -20 -20 7 12 -3 9 -20
29 16 10 3 -3 26 21 26 18 -2 -20 -20 -19 -18 -19 -20 -20 -20 -20 -20 -20 -20 11 -14 -15 -7 -20
29 26 24 9 -1 21 32 27 15 -8 1 1 -4 -0 -20 -20 -20 -20 -20 -20 -20 -7 2 3 -18 0 5
38 22 24 23 23 19 33 31 14 -11 -20 -20 -20 -9 0 -20 -20 -20 -20 -20 -20 -15 -13 9 2 -15 -20
26 23 25 28 29 27 29 27 2 -20 -20 -20 4 13 -10 -20 -20 -20 -20 -20 -20 -9 12 16 6 -20 -20
25 30 28 33 30 28 27 30 21 8 11 13 7 -20 -20 -20 -20 -20 -20 -20 -20 11 18 11 -10 10 -20
33 32 34 40 31 32 32 30 26 6 4 6 -10 2 -2 -20 -5 -20 -20 -20 -20 12 16 13 -1 -8 5
30 29 33 38 34 34 36 32 19 14 10 9 8 -15 -4 -9 -20 -20 -20 -20 -20 10 12 15 15 -16 -6
25 26 36 37 33 32 33 30 16 14 12 -3 -3 -17 -20 -20 -20 -20 -20 -20 -20 7 4 -7 26 -16 -20
-12 6 22 32 35 31 29 30 25 11 10 -4 -19 -20 -6 -20 -20 -20 -20 -20 -20 -20 14 -6 20 18 -13
-20 -11 24 29 32 26 25 26 24 12 5 5 6 -4 -17 -20 -20 -20 -20 -20 -20 -20 -20 13 17 24 21
-20 -20 -2 33 28 12 1 6 6 5 -3 -3 -4 -10 -5 -20 -20 -20 -20 -20 -20 -20 -20 -20 -18 -5 5
9 12 16 28 29 31 25 10 9 7 6 -7 -14 -16 -20 -20 -20 -20 -20 -20 -20 -20 -20 -20 -20 -20 -20
24 21 25 28 30 29 28 20 11 7 1 2 7 -5 -20 -20 -20 -20 -20 -20 -20 -20 -20 -20 -20 -20 -20
27 23 35 18 22 27 29 20 18 13 12 9 -2 -20 -20 -20 -20 -20 -20 -20 -20 -20 -20 -20 -20 -20 -20
27 31 32 19 25 25 16 19 22 14 12 14 -6 -5 -8 -20 -20 -20 -20 -20 -20 -20 -20 -20 -20 -20 -20

GFSFLT2_prec_radar_135.txt.gz
Reflectivity
19 23 21 19 27 19 23 11 5 -5 5 22 22 12 -20 -20 -20 -20 -20 -20 -20 -20 -20 -20 -3 11 17
-18 25 18 25 28 22 23 5 3 20 0 3 21 4 -20 -20 -20 -20 -20 -20 -20 -20 -20 -20 -12 8 11
10 -5 -0 -6 23 10 15 20 19 23 23 25 12 -17 -20 -20 -20 -20 -20 -20 -20 -20 -20 -2 -19 -15 3
20 24 17 10 12 24 19 22 19 3 12 28 23 -6 -15 -13 -20 -20 -18 11 -20 -20 -20 10 7 -9 4
25 23 21 17 24 27 22 27 28 23 25 16 22 17 -10 -20 -20 -20 -20 -11 -20 -20 -20 7 6 1 4
27 28 28 28 17 15 31 25 30 25 33 32 32 11 -8 -18 -20 -14 -8 -20 -20 -20 -15 15 7 -20 14
15 13 6 20 10 4 13 28 32 31 34 36 31 20 14 8 14 7 0 3 -5 -1 -5 13 6 -9 10
-19 -12 -20 -15 -20 -20 6 29 33 32 31 35 36 23 13 15 16 15 14 3 7 -15 11 16 0 10 -13
-20 -20 -20 -20 -20 -20 -9 13 23 33 31 37 32 25 23 12 12 10 7 -9 -20 -16 16 22 -8 7 -15
-18 -20 -18 -20 -20 -20 -20 -6 14 19 17 31 29 27 20 21 12 2 1 -8 -19 -10 9 21 15 -20 1
12 13 8 -20 -20 -20 -17 -8 6 18 18 22 27 23 11 13 3 -2 -6 -15 -20 -20 14 21 16 6 -11
16 15 15 6 -20 9 -18 -3 17 29 29 17 17 25 19 11 11 13 2 -8 -7 -20 -17 12 14 27 15
12 6 15 22 16 -3 -12 -20 13 29 29 28 24 24 19 9 11 3 -3 -4 -18 -20 -20 6 -8 9 21
10 13 20 25 31 34 28 5 16 27 25 32 27 19 10 6 1 -4 -5 -20 -20 -20 -20 -18 16 8 20
11 15 20 35 24 30 28 22 18 20 25 20 20 24 9 1 2 -13 -20 -20 -20 -20 -20 -20 -18 11 -9
16 24 20 17 26 22 18 19 25 25 27 26 20 12 1 -19 -20 -20 -20 -20 -20 -20 -20 -20 -20 -20 -20
9 10 8 18 21 16 20 17 27 21 23 27 19 19 12 2 -10 -20 -20 -20 -20 -20 -20 -20 -20 -20 -20

GFSFLT2_prec_radar_138.txt.gz
Reflectivity
12 22 24 24 21 10 8 25 6 17 20 16 7 -1 -10 8 9 -2 -20 -20 -20 -20 -20 -20 -20 12 5
30 20 16 22 -1 -20 -7 -2 7 18 22 16 11 4 13 21 10 5 -20 -20 -20 -20 -20 -20 -20 -2 1
16 18 18 -8 4 -2 6 -3 -2 22 18 15 15 23 13 23 19 8 -20 -20 -20 -20 -20 -20 -15 -13 -20
24 9 -5 -10 -9 -9 -11 -20 -4 5 11 12 19 19 24 19 25 5 -2 -4 -20 -20 -20 -20 -16 -20 -20
-19 -20 -8 -16 -20 -9 -18 10 16 14 3 16 13 16 21 30 25 26 7 -19 -20 -20 -20 -20 -20 -20 -20
21 26 23 18 20 10 0 -1 3 -18 -20 -10 8 23 22 20 27 31 6 -6 -6 -19 -20 5 -0 -20 -12
-18 -20 -20 -18 -3 -20 -10 -20 -20 -20 -19 1 4 16 17 15 20 26 10 7 5 1 5 -6 -5 5 13
-20 -20 -20 -13 -20 -20 -20 -20 -20 -20 -16 -9 -6 -5 14 7 15 -20 -5 18 10 -2 5 14 4 6 0
5 -13 -19 -20 -20 -20 -20 -20 -20 -9 -16 -13 -3 17 23 4 3 -12 9 15 9 6 8 16 11 -4 -7
-20 -18 -12 -20 -2 -19 -20 -20 -20 -19 -19 -1 1 1 6 5 8 25 26 23 15 17 14 12 21 -1 -9
-20 -20 -18 -12 -1 10 2 8 -18 -20 -2 -2 -5 5 18 10 26 31 30 19 10 12 7 8 19 -11 -20
-20 -20 -20 -17 -5 10 18 22 24 17 11 14 10 21 25 23 25 27 27 16 14 14 10 14 17 20 8
-20 -20 -20 -20 -10 17 18 24 24 28 21 5 14 32 33 31 29 29 21 29 22 12 10 10 15 -5 14
-20 -20 -20 -14 3 -1 27 17 15 27 33 28 24 35 37 37 31 22 25 14 12 13 8 2 10 8 31
-13 -17 -19 -9 8 14 21 25 25 25 10 16 22 31 37 35 24 24 18 14 18 13 7 6 13 12 26
-2 2 -2 -20 -11 3 11 15 11 13 13 21 20 17 24 26 32 20 19 13 7 7 3 -1 -18 14 13
-1 17 10 -3 23 -6 2 25 10 11 4 17 7 16 20 19 24 34 19 14 2 -12 -17 -20 -20 -20 -8